Location: NJAA Observatory
(40.6819°N, 74.8979°W)
Time: 01:45:17
(UTC-04:00)

Iridium 56 - Visible Passes

Search period start: 01 August 2014 00:00
Search period end: 11 August 2014 00:00
Orbit: 776 x 779 km, 86.4° (Epoch: 31 July)

Date Brightness Start Highest point End Pass type
(mag) Time Alt. Az. Time Alt. Az. Time Alt. Az.
01 Aug 7.6 21:31:53 10° NNW 21:36:15 28° W 21:40:36 10° SW visible
02 Aug 6.5 20:57:53 10° NNW 21:02:55 51° W 21:07:55 10° SSW visible
03 Aug 8.7 22:08:45 10° WNW 22:09:20 10° WNW 22:09:54 10° W visible
04 Aug 8.2 21:32:33 10° NW 21:36:11 20° W 21:39:49 10° SW visible
05 Aug 7.3 20:58:13 10° NNW 21:02:55 35° W 21:07:36 10° SSW visible
07 Aug 8.5 21:33:38 10° NW 21:36:04 13° WNW 21:38:30 10° WSW visible
08 Aug 8.0 20:58:43 10° NNW 21:02:52 25° W 21:07:01 10° SW visible
